Location: Ch?enovice
(49.7164°N, 15.2160°E)
Time: 23:48:18
(UTC+00:00)

AQUA - Pass Details

Date: 23 May 2024
Orbit: 693 x 697 km, 98.3° (Epoch: 22 June)

Event Time Altitude Azimuth Distance (km) Brightness Sun altitude
Rises 01:57:12 0° 12° (NNE) 3,088 8.3 -9.0°
Reaches altitude 10° 01:59:28 10° 9° (N) 2,165 7.3 -8.7°
Maximum altitude 02:04:09 65° 289° (WNW) 767 3.9 -8.2°
Drops below altitude 10° 02:08:48 10° 208° (SSW) 2,147 5.7 -7.7°
Enters shadow 02:09:10 - 207° (SSW) 2,293 5.9 -7.7°
